Simultaneous Nadir Overpasses (SNOs) Predictions

Prediction of SNOs between GOES-16 and AQUA Satellite Orbit:

Table of predicted SNOs for the next 14.0 days since TLE Epoch: 11/1/2019
Index Date Time (GOES-16) GOES-16 Lat,Lon AQUA Lat,Lon Distance(km) Time Diff (sec)
1 11/03/2019 06:29:25 -0.00, -75.20 -0.29, -73.89 148.95 80
2 11/03/2019 18:50:49 0.00, -75.20 -0.80, -79.08 441.21 80
3 11/05/2019 06:17:13 -0.00, -75.20 -0.92, -70.93 486.20 80
4 11/05/2019 18:38:36 0.00, -75.20 -0.22, -76.11 103.75 80
5 11/07/2019 18:29:04 -0.00, -75.22 0.43, -73.15 234.57 80
6 11/08/2019 06:50:20 0.00, -75.23 0.66, -78.31 351.16 80
7 11/10/2019 06:38:08 0.00, -75.25 0.01, -75.36 12.24 80
8 11/12/2019 06:23:15 0.00, -75.27 -0.58, -72.39 327.35 80
9 11/12/2019 18:44:39 -0.00, -75.28 -0.48, -77.59 262.03 80
10 11/14/2019 18:35:06 -0.01, -75.31 0.13, -74.62 77.91 80




NCC Satellite Simultaneous Nadir Overpasses (SNOs) Prediction Service
